Location: Cactus School
(34.5700°N, 118.0931°W)
Time: 21:19:06
(UTC-07:00)

Vanguard 2 Rocket - Visible Passes

Search period start: 21 April 2024 00:00
Search period end: 01 May 2024 00:00
Orbit: 555 x 3307 km, 32.9° (Epoch: 21 April)

Date Brightness Start Highest point End Pass type
(mag) Time Alt. Az. Time Alt. Az. Time Alt. Az.
21 Apr 9.2 01:23:08 10° W 01:43:34 81° SSW 02:00:10 10° ESE visible
21 Apr 9.2 03:42:02 10° WNW 04:00:39 53° SSW 04:13:19 10° SE visible
21 Apr 9.5 19:50:45 10° SSW 20:03:06 44° SE 20:20:42 10° E visible
21 Apr 9.3 22:03:07 10° WSW 22:19:31 76° SSE 22:39:51 10° E visible
22 Apr 9.3 00:18:54 10° W 00:38:32 85° S 00:57:00 10° E visible
22 Apr 9.2 02:36:51 10° W 02:56:50 66° SSW 03:11:33 10° SE visible
22 Apr 9.5 04:57:19 10° W 05:11:47 30° SW 05:22:05 10° S visible
22 Apr 9.3 21:00:44 10° SW 21:15:06 66° SSE 21:35:05 10° E visible
22 Apr 9.4 23:15:12 10° W 23:33:22 85° S 23:53:12 10° E visible
23 Apr 9.3 01:32:09 10° W 01:52:22 75° SSW 02:09:07 10° ESE visible
23 Apr 9.4 03:51:12 10° W 04:08:53 43° SW 04:21:31 10° SSE visible
23 Apr 9.3 19:59:00 10° SW 20:11:20 54° SSE 20:29:50 10° ENE visible
23 Apr 9.3 22:12:05 10° WSW 22:28:20 82° S 22:48:51 10° E visible
24 Apr 9.3 00:27:58 10° W 00:47:26 82° S 01:06:01 10° ESE visible
24 Apr 9.3 02:45:52 10° WNW 03:05:15 56° SSW 03:20:03 10° SE visible
24 Apr 9.8 05:07:39 10° W 05:19:39 22° SW 05:28:59 10° S visible
24 Apr 9.2 21:09:32 10° WSW 21:23:45 75° SSE 21:44:00 10° E visible
24 Apr 9.4 23:24:17 10° W 23:42:17 85° S 00:02:13 10° E visible
25 Apr 9.3 01:41:09 10° W 02:00:59 67° SSW 02:17:49 10° SE visible
25 Apr 9.6 04:00:41 10° W 04:16:52 34° SW 04:29:10 10° SSE visible
25 Apr 9.2 20:07:34 10° SW 20:19:46 64° SSE 20:38:47 10° E visible
25 Apr 9.3 22:21:08 10° W 22:37:14 85° S 22:57:49 10° E visible
26 Apr 9.3 00:36:59 10° W 00:56:13 76° SSW 01:14:50 10° ESE visible
26 Apr 9.4 02:55:00 10° W 03:13:26 46° SW 03:28:07 10° SSE visible
26 Apr 10.1 05:19:41 10° W 05:27:28 14° SW 05:34:11 10° SSW visible
26 Apr 9.2 21:18:29 10° WSW 21:32:32 81° SSE 21:52:54 10° E visible
26 Apr 9.3 23:33:21 10° W 23:51:10 82° S 00:00:49 42° ESE visible
27 Apr 9.5 01:50:09 10° WNW 02:17:12 40° SSE 02:26:10 10° SE visible
27 Apr 9.8 04:10:47 10° W 04:24:43 25° SW 04:36:03 10° S visible
27 Apr 9.1 20:16:22 10° WSW 20:28:24 73° SSE 20:47:37 10° E visible
27 Apr 9.3 22:30:13 10° W 22:46:08 85° S 23:00:10 28° E visible
28 Apr 9.3 00:45:59 10° W 01:04:47 68° SSW 01:23:25 10° SE visible
28 Apr 9.8 03:04:24 10° W 03:27:19 30° S 03:35:40 10° SSE visible
28 Apr 9.2 21:27:32 10° W 21:41:25 84° S 22:00:01 14° E visible
28 Apr 9.3 23:42:22 10° W 23:59:54 77° SSW 00:05:29 58° SE visible
29 Apr 9.9 01:59:16 10° W 02:30:54 19° SSE 02:34:07 10° SSE visible
29 Apr 10.2 04:36:41 15° SW 04:36:41 15° SW 04:41:36 10° SSW visible
29 Apr 9.0 20:25:19 10° WSW 20:37:11 80° SSE 20:56:26 10° E visible
29 Apr 9.3 22:39:17 10° W 22:54:59 82° S 23:05:35 38° ESE visible
30 Apr 9.5 00:55:00 10° W 01:34:06 - SE 01:11:03 57° SW visible
30 Apr 10.3 03:14:22 10° W 03:39:50 15° S 03:42:28 10° S visible
30 Apr 9.2 21:36:37 10° W 21:50:18 85° S 22:05:49 22° E visible
